sat.trackr.live / text

‹ back to catalog

2025-055B

NORAD 63292 · 2025-055B

PAYLOAD ACTIVE UNKNOWN

§ Identity

Operator
Country
PRC
Launch date
2025-03-17
Launch site
JSC
Launch vehicle
Mass (kg)
RCS (m²)

External: N2YO · Heavens-Above · Gunter

§ Orbital elements

Epoch: 2026-09-22T22:20:15.758880Z

Period
95.19 min
Inclination
97.6628°
Eccentricity
0.0035678
Mean motion
15.12761902 rev/d
Perigee alt
503.1 km
Apogee alt
552.4 km
Semi-major
6,905.9 km
B*
3.2237e-4
RAAN
47.0247°
Arg perigee
175.2318°
Mean anomaly
184.9260°
Rev number
8,385

§ Raw data

2025-055B1 63292U 25055B   26265.93073795  .00005673  00000+0  32237-3 0  99932 63292  97.6628  47.0247 0035678 175.2318 184.9260 15.12761902 83850

JSON: /api/v1/satellites/63292 · /tle

For live sub-satellite position, see the globe view (requires WebGL).

§ Visibility from observer

Set your observer location to see the next 7 days of passes ≥ 10°. The values pass through the URL so the page stays shareable.

No JS? Fill the form by hand. The geolocation button needs JavaScript.